Location: Chandolas
(44.4033°N, 4.2533°E)
Time: 02:20:09
(UTC+00:00)

SL-16 R/B - Pass Details

Date: 15 November 2019
Orbit: 842 x 846 km, 71.0° (Epoch: 12 December)

Event Time Altitude Azimuth Distance (km) Brightness Sun altitude
Exits shadow 05:19:05 - 334° (NNW) 2,924 4.6 -14.2°
Reaches altitude 10° 05:20:16 10° 333° (NNW) 2,477 4.3 -14.0°
Maximum altitude 05:25:58 85° 247° (WSW) 855 2.2 -13.0°
Drops below altitude 10° 05:31:37 10° 159° (SSE) 2,460 5.1 -12.1°
Sets 05:34:03 0° 159° (SSE) 3,391 5.9 -11.6°
